Tracking 30970 objects as of 3-Jul-2025
HD Live streaming from Space Station
objects crossing your sky now

SL-8 R/B

Track SL-8 R/B now!
10-day predictions


NORAD ID: 14059
Int'l Code: 1983-042B
Perigee: 944.1 km
Apogee: 1,004.6 km
Inclination: 83.0 °
Period: 104.4 minutes
Semi major axis: 7345 km
RCS: 4.9423 m2 (large)
Launch date: May 6, 1983
Source: Commonwealth of Independent States (former USSR) (CIS)
Launch site: PLESETSK MISSILE AND SPACE COMPLEX (PKMTR)

Note: This is a ROCKET BODY
Your satellite tracking list
STARLINK-1273
Track 1 satellite(s)




NASA's NSSDC Master Catalog

Two Line Element Set (TLE):
1 14059U 83042B   25183.90292553  .00000100  00000-0  82610-4 0  9992
2 14059  82.9711  40.8152 0041161 294.6296  65.0577 13.79064683120303
Source of the keplerian elements: AFSPC